Tracking 30995 objects as of 5-Jul-2025
HD Live streaming from Space Station
objects crossing your sky now

STARLINK-30226

Track STARLINK-30226 now!
10-day predictions
STARLINK-30226 is classified as:


NORAD ID: 57497
Int'l Code: 2023-113C
Perigee: 565.2 km
Apogee: 567.2 km
Inclination: 43.0 °
Period: 95.8 minutes
Semi major axis: 6937 km
RCS: Unknown
Launch date: August 7, 2023
Source: United States (US)
Launch site: AIR FORCE EASTERN TEST RANGE (AFETR)
Your satellite tracking list
TEMPEST-D
Track 1 satellite(s)




NASA's NSSDC Master Catalog

Two Line Element Set (TLE):
1 57497U 23113C   25186.29031815  .00000548  00000-0  55667-4 0  9993
2 57497  43.0020 281.7597 0001470 266.8381  93.2293 15.02537624106345
Source of the keplerian elements: AFSPC